Terug naar catalogus

DELTA 1 DEB

ActiefUNKNOWN
NORAD 12536·DEBRIS·🇺🇸 United States

Gelanceerd Jul 29, 1976 vanaf Vandenberg Space Force Base

Loading…

Volgende Passages (komende 24 uur)

TLE

VersSource: Space-Track

Epoch: Sep 14, 2026, 10:49 UTC

1 12536U 76077DR  26257.45071854 -.00002908  00000-0 -31653-1 0  9990
2 12536 101.7686 337.3362 0517239  64.3169 359.5333 11.80127813 64408

Volg DELTA 1 DEB in realtime met AllMySat

Download on the App Store